Theta_e
301 301 302 302 303 302 302 305 307 306 305 306 306 305 305 310 311 313 314 309 313 321 322 330 335 335 348 350 350 350 362 362 360 362 364 358 359 358 355 352 346 353 348 347 350
301 302 304 304 305 305 303 304 306 306 305 306 306 305 307 311 314 315 312 309 315 324 330 334 332 330 345 352 353 357 363 360 354 357 362 359 359 359 356 356 355 349 346 348 349
302 305 306 306 307 306 304 304 306 305 306 306 307 307 312 311 320 320 317 310 324 326 327 324 327 331 336 340 353 355 359 355 355 356 357 358 359 356 357 360 355 351 349 348 348
303 306 307 307 307 307 306 305 305 306 306 307 309 310 310 316 330 326 318 314 318 323 317 325 330 334 340 346 345 352 349 354 352 356 357 359 356 358 357 359 352 351 347 347 347
305 307 307 307 308 307 307 306 305 306 307 308 310 311 315 319 315 325 312 315 319 319 317 324 334 334 340 341 344 348 346 342 343 354 356 353 356 358 359 357 354 349 347 346 346
307 307 308 307 308 308 307 306 305 306 307 309 310 312 314 313 319 323 315 319 319 318 317 330 333 335 337 338 342 340 341 339 337 355 355 356 356 354 355 353 355 354 347 344 345
307 307 307 307 308 307 306 306 305 306 308 310 314 317 318 313 323 322 320 320 320 318 315 321 333 335 337 340 335 338 340 331 356 357 359 355 358 358 352 351 356 353 347 344 344
307 307 308 307 307 306 306 306 306 307 309 310 317 320 320 323 323 322 321 322 319 317 318 318 329 329 335 335 328 329 325 327 358 357 356 356 365 356 356 353 354 353 348 347 344
307 307 307 307 306 306 306 305 308 310 309 313 320 321 326 324 323 324 325 329 320 318 317 322 326 324 324 327 325 324 330 328 355 354 358 357 362 357 355 357 357 353 349 348 344
307 307 306 306 306 307 306 310 312 311 318 320 321 321 318 320 316 314 320 329 324 318 317 318 317 321 323 325 331 331 329 326 328 354 356 359 359 358 357 357 358 354 350 348 344
306 306 306 307 308 307 306 310 307 310 320 314 315 317 320 319 316 315 317 326 319 318 318 318 324 327 328 325 327 326 326 327 326 330 356 357 361 357 357 357 358 355 350 348 346
306 306 307 308 307 306 308 308 312 311 310 313 318 319 320 319 315 316 320 323 322 323 322 323 327 326 327 326 326 326 328 327 326 333 338 350 363 355 358 358 357 355 351 348 346
306 307 308 309 306 310 305 312 313 312 309 310 313 315 315 315 314 315 315 319 325 326 325 325 327 326 327 328 328 327 327 327 328 338 355 359 362 358 356 353 350 352 353 349 346
308 309 309 306 308 307 310 313 313 311 307 309 312 315 313 311 313 318 318 320 325 327 326 326 326 329 328 328 327 329 325 327 325 321 323 352 360 364 358 358 352 353 355 352 348
309 310 310 309 310 310 314 313 314 309 315 314 312 313 310 311 313 315 315 316 320 323 327 331 325 325 325 326 326 328 326 323 323 321 335 341 337 342 355 357 355 354 354 353 349
311 311 310 309 308 313 311 314 312 311 317 313 312 311 311 311 313 314 314 314 314 316 316 317 318 321 323 323 323 324 322 317 316 316 320 322 321 330 358 354 353 351 355 353 350
312 312 312 308 310 309 313 311 310 312 313 312 312 311 310 311 313 314 314 312 313 314 315 315 315 313 315 319 320 318 317 319 321 320 321 318 319 319 339 350 348 350 354 353 349
314 313 314 315 314 314 313 309 314 315 314 312 310 310 310 310 312 312 310 310 313 311 309 312 315 315 314 315 317 320 317 318 323 321 323 318 322 321 320 330 344 347 349 352 349
316 315 316 317 316 315 309 311 314 313 314 313 313 313 313 313 311 312 312 312 312 311 313 313 315 313 314 312 314 316 318 317 316 316 319 319 320 321 328 334 343 347 350 352 348
318 317 316 315 316 312 312 314 314 313 313 312 313 313 314 314 314 309 312 312 314 311 310 312 314 312 313 312 312 311 312 316 314 321 323 320 321 322 330 331 344 344 349 350 349
317 311 315 315 314 309 315 315 315 314 314 313 313 313 313 313 313 313 312 313 312 312 308 308 309 312 310 311 312 310 309 308 310 314 319 321 321 326 329 328 330 338 342 344 344
313 312 315 315 311 308 310 312 313 314 312 312 312 312 312 311 311 311 313 312 312 311 311 308 305 310 312 309 310 308 309 305 309 312 313 317 324 318 319 326 340 345 346 343 344
312 312 315 315 313 311 311 313 313 313 312 312 312 311 310 310 313 312 313 313 314 311 312 310 306 310 310 308 307 309 309 308 304 305 310 315 316 317 323 341 340 342 343 345 345
309 311 307 306 305 311 312 312 314 312 312 311 312 310 309 310 308 312 312 312 311 316 318 309 304 308 311 310 308 310 310 309 307 309 310 310 311 323 332 341 338 337 338 340 341
307 311 308 309 309 309 310 312 314 312 310 309 312 311 310 311 311 311 310 309 309 311 310 305 308 310 310 312 313 313 313 313 313 311 312 311 312 322 323 333 333 331 333 337 339
311 312 305 306 306 309 308 311 313 313 310 311 311 311 309 311 311 312 310 309 309 308 307 308 312 313 313 313 312 313 312 312 313 313 313 316 315 319 321 327 328 327 329 332 332
314 312 306 307 307 308 309 312 311 311 311 311 311 310 311 311 309 307 306 307 308 310 307 310 310 310 314 311 311 311 312 312 318 321 320 316 320 319 320 323 322 325 325 328 330
Wind_Speed
22 22 22 22 23 22 21 21 18 16 14 14 15 14 11 9 8 5 7 8 12 12 19 17 12 7 7 3 4 2 2 3 1 2 2 9 4 2 3 11 7 5 16 23 30
23 23 23 23 22 22 22 22 18 14 15 16 14 11 9 8 8 12 12 16 15 22 20 16 7 9 3 4 4 4 2 4 3 4 7 12 7 9 5 6 4 17 20 31 31
23 23 24 23 24 23 21 22 18 13 14 15 12 7 5 5 3 7 6 20 22 25 16 16 13 5 1 3 4 5 4 2 3 6 10 12 10 4 13 5 8 20 21 24 29
24 24 24 25 24 24 23 20 18 14 14 13 9 4 3 1 2 2 9 25 23 21 13 10 6 6 4 5 4 3 7 11 4 7 7 11 7 7 8 5 12 10 21 21 22
24 25 26 25 25 25 24 23 17 15 13 8 7 4 1 1 8 4 18 25 21 24 14 7 6 5 5 4 4 6 11 7 8 9 8 11 6 6 7 9 8 15 21 19 17
25 26 26 27 27 26 25 22 20 12 12 4 5 1 2 3 1 11 23 24 22 22 11 10 7 6 1 3 1 3 6 10 10 10 10 9 5 5 8 10 7 16 20 19 18
26 27 28 28 28 28 26 23 18 13 9 3 1 5 0 10 2 15 21 25 25 25 7 18 4 2 2 4 4 10 10 6 4 8 5 14 5 5 10 13 14 16 19 18 20
28 28 29 29 29 28 27 22 18 15 3 3 6 3 6 2 4 17 17 9 21 22 4 17 8 1 2 4 5 3 3 3 3 8 7 4 4 7 10 14 11 17 16 16 19
29 29 29 29 29 28 27 22 14 2 8 8 4 2 8 5 7 20 19 8 16 12 14 9 8 4 1 1 4 6 1 2 2 5 6 5 2 8 11 10 13 16 16 16 16
30 30 29 29 29 27 24 7 8 10 9 4 2 3 7 4 5 13 19 16 6 8 4 4 2 2 2 3 4 2 2 2 1 6 4 6 2 8 9 11 10 14 17 17 14
30 30 30 29 28 24 18 2 2 2 4 8 6 4 3 10 6 9 14 13 5 5 5 4 4 5 7 6 5 3 3 3 3 4 5 15 7 12 11 9 12 13 18 17 16
29 30 32 30 26 13 2 1 2 2 6 10 7 7 12 6 3 3 15 6 5 4 4 5 5 8 2 3 4 3 1 5 7 3 7 7 6 6 7 6 7 10 15 18 15
29 33 31 27 13 2 6 3 20 5 2 6 6 5 5 9 5 6 7 4 5 4 4 5 4 5 4 4 3 4 3 4 6 5 3 7 4 5 4 2 1 5 5 10 17
31 32 27 22 1 10 4 18 19 4 4 6 4 6 4 6 1 2 7 5 3 8 7 4 4 6 6 6 6 6 8 8 5 2 2 0 2 5 6 11 7 9 9 10 13
33 27 20 8 9 4 10 23 11 4 2 2 1 3 3 6 5 3 1 5 5 4 6 6 2 5 7 10 6 9 6 7 6 3 4 3 5 3 10 16 19 14 14 16 16
30 20 14 5 8 6 19 16 3 4 1 2 4 4 6 2 2 3 3 5 2 5 1 5 2 5 7 7 9 6 3 5 5 3 2 5 4 5 5 16 14 15 18 19 19
19 13 8 5 3 13 20 3 4 2 7 4 3 4 5 2 2 2 4 4 3 4 1 2 2 6 4 2 3 5 6 2 2 3 5 3 4 7 16 13 16 22 21 21 19
13 9 9 11 13 16 7 5 8 5 4 5 3 4 5 3 1 3 4 4 7 4 3 4 1 6 8 2 1 2 7 5 5 5 3 2 5 1 5 10 12 16 17 17 18
10 7 7 8 8 5 4 6 2 4 5 7 3 7 7 6 4 6 4 4 6 4 5 3 2 5 4 6 2 2 4 1 7 4 3 3 5 5 11 13 4 12 11 16 18
7 10 11 18 6 5 5 5 2 8 6 6 6 5 5 8 5 5 5 5 3 8 1 1 3 2 5 5 7 7 2 3 4 4 3 3 2 3 10 12 11 3 9 11 12
5 4 23 7 2 5 4 3 5 11 7 8 7 6 4 5 5 4 6 4 7 6 9 2 3 5 2 6 4 7 5 5 3 4 5 3 1 5 7 8 8 10 7 9 15
4 4 26 10 5 2 3 5 8 13 11 8 5 6 5 8 8 5 5 7 9 3 4 4 4 4 4 6 6 10 5 4 4 5 2 2 2 8 10 8 11 14 14 12 15
3 2 18 10 4 4 5 5 9 13 9 6 8 7 6 6 6 6 5 8 14 5 2 4 4 3 4 6 8 7 6 4 4 3 3 1 2 10 13 14 17 19 20 15 12
3 4 5 5 2 5 4 6 4 10 8 5 6 4 6 9 10 4 5 7 9 8 14 7 4 4 4 3 3 3 5 5 5 4 4 3 4 11 16 17 17 18 18 16 15
4 1 2 3 5 6 5 5 7 5 5 10 7 10 3 5 4 4 6 6 6 14 7 5 4 2 2 2 2 2 4 5 3 4 4 6 5 7 12 12 13 14 16 19 17
3 3 4 2 2 6 6 5 6 5 5 5 5 5 8 5 3 1 1 2 1 7 6 5 2 2 6 4 5 2 4 5 6 3 2 5 2 5 6 9 13 14 14 15 16
5 3 4 5 4 4 3 2 3 1 6 2 3 3 5 2 4 6 5 3 2 1 2 3 3 3 3 6 6 5 6 5 2 3 3 5 1 4 5 10 11 12 11 12 11
Wind_Direction
353 351 351 351 349 348 347 345 338 329 326 325 322 314 313 312 307 268 232 211 195 187 169 160 177 178 164 192 227 207 280 271 246 161 131 152 120 7 1 132 132 347 129 138 137
351 349 349 348 346 346 345 344 339 332 328 328 326 324 315 317 308 245 241 189 169 160 161 159 165 161 169 209 210 190 212 246 133 136 149 161 148 141 124 148 90 110 120 132 138
349 347 346 345 345 342 343 345 339 334 331 329 326 327 313 337 301 247 194 173 161 163 163 174 149 147 161 230 220 176 222 188 167 118 155 154 134 118 139 187 128 144 143 146 148
347 346 344 343 343 341 339 344 339 330 331 329 326 323 321 340 188 337 167 165 164 173 170 161 146 149 211 216 209 295 254 250 256 174 131 146 121 121 165 127 146 186 147 152 158
346 343 340 340 340 338 338 338 336 327 327 326 314 293 16 304 250 176 158 164 169 175 179 159 149 165 189 208 188 238 269 267 260 190 132 137 161 127 116 125 180 194 157 161 165
344 340 338 338 338 336 333 335 331 322 323 309 305 229 141 263 187 169 168 164 170 176 178 170 189 192 206 258 201 249 273 284 260 154 148 137 142 146 161 155 168 193 165 162 170
343 339 337 337 336 334 332 330 327 311 315 264 199 133 226 232 271 178 172 182 184 187 159 195 164 126 11 292 271 257 273 291 63 138 141 123 126 190 164 167 163 178 162 164 173
340 337 335 334 334 332 328 328 317 303 242 192 160 152 243 197 156 175 177 191 197 197 144 199 168 327 194 287 328 282 28 13 178 157 154 195 162 174 173 173 186 175 170 159 176
336 335 333 333 332 332 327 330 318 222 151 140 161 163 268 305 190 216 206 171 179 189 211 160 161 214 278 187 17 358 263 347 107 223 153 213 197 175 183 165 169 176 184 166 174
335 334 334 332 330 331 328 2 96 115 112 135 260 325 272 220 185 178 193 166 147 131 146 175 120 147 39 83 194 167 4 5 284 189 141 198 262 146 188 166 176 180 190 177 177
337 335 335 331 329 327 326 135 29 42 198 198 182 261 267 324 165 159 173 151 106 112 143 187 128 199 214 192 185 155 195 281 222 197 174 206 171 177 190 188 189 194 193 184 176
339 338 335 330 327 317 333 312 320 359 304 230 225 257 270 267 279 162 147 131 140 161 129 58 211 213 241 208 207 232 298 300 296 314 191 188 184 179 191 207 192 198 195 190 183
343 339 334 331 328 123 305 293 338 342 165 294 195 194 219 149 211 216 130 134 142 139 141 143 224 162 178 255 224 261 181 220 234 312 47 107 76 173 243 252 292 250 256 212 196
342 339 337 337 39 336 280 337 346 146 61 278 220 250 161 142 207 158 160 140 132 183 154 197 240 195 221 230 154 262 183 229 242 111 274 93 178 188 216 249 243 228 222 217 204
339 340 336 336 313 310 320 345 357 83 71 135 188 146 93 140 153 35 118 56 137 122 107 228 215 185 208 226 152 236 182 182 206 181 93 345 82 232 178 238 241 216 214 218 207
337 339 332 325 300 325 343 338 46 36 103 127 123 142 93 14 52 106 84 50 79 122 70 218 236 157 213 217 190 232 139 58 52 110 61 236 120 279 191 225 227 210 215 215 218
342 333 317 282 282 329 336 32 49 66 328 358 127 111 108 135 112 100 112 51 103 100 176 340 34 325 33 252 16 102 74 334 39 54 190 214 91 231 236 257 227 205 203 208 208
340 325 324 300 301 314 344 59 61 319 301 307 350 103 99 145 24 66 65 57 25 57 92 142 70 4 324 33 164 199 153 152 169 168 192 177 200 336 305 268 238 217 215 210 198
337 331 320 342 322 345 68 56 346 310 296 327 23 55 4 358 115 85 52 42 29 17 119 132 108 328 7 37 52 299 42 248 104 12 76 264 294 6 359 7 285 213 207 214 208
351 336 357 337 318 24 64 99 42 356 351 34 83 37 47 346 57 72 30 347 26 24 129 131 114 351 303 20 22 78 316 54 11 122 159 319 62 306 344 352 353 336 234 217 215
10 34 350 340 338 41 73 55 44 356 42 48 14 45 43 16 42 56 8 11 6 348 62 59 64 302 41 19 345 16 11 11 111 85 143 140 352 332 320 325 332 323 272 219 210
35 43 354 20 49 21 32 350 22 2 15 35 61 57 41 27 34 72 64 9 340 1 44 340 125 70 51 326 78 92 63 88 97 330 17 148 223 344 322 321 5 357 339 260 218
72 291 3 39 85 6 347 42 56 25 17 27 16 32 25 30 83 48 50 353 2 47 49 334 20 45 18 352 10 46 7 34 108 57 9 98 282 337 352 11 17 16 11 18 48
73 22 341 30 25 100 50 9 53 30 45 30 21 47 46 29 23 64 28 5 6 22 42 72 62 103 155 163 222 18 28 43 83 75 298 243 330 335 0 2 13 16 18 22 35
35 324 191 353 3 54 59 16 45 16 29 18 37 30 37 63 44 44 3 350 357 1 24 80 90 85 133 215 106 142 57 77 89 197 169 281 35 321 337 354 4 15 23 25 28
84 79 19 28 348 41 20 3 38 356 42 358 84 46 50 84 129 138 77 40 34 343 35 358 144 83 356 353 36 336 234 198 224 163 211 250 126 311 327 3 12 19 20 24 16
35 43 96 317 19 59 334 34 21 41 23 60 109 90 32 0 198 203 197 191 163 96 46 55 106 68 308 328 349 60 61 66 98 350 290 221 147 350 348 6 5 5 11 12 6